"TOA5","AWS1","CR1000","7964","CR1000.Std.14","CPU:AWS1_114.CR1","64363","TBL110"
"TIMESTAMP","RECORD","Wind_spd_WVc(1)","Wind_spd_WVc(2)","Air_Temp_Avg","Humidity_Avg","SW_upper_Wm2_Avg","Rain_Tot","Press_Avg","Issui_Tot","Depth_cm","SR50A_Raw","Quality","Ground_Temp_Avg(1)","Ground_Temp_Avg(2)","SW_lower_Wm2_Avg","Albedo_Avg","SWC_per(1)","SWC_per(2)","Period(1)","Period(2)"
"TS","RN","","","","","","","","","","","","","","","","","","",""
"","","WVc","WVc","Avg","Avg","Avg","Tot","Avg","Tot","Smp","Smp","Smp","Avg","Avg","Avg","Avg","Smp","Smp","Smp","Smp"
"2017-03-19 00:00:00",279853,0.314,322.6,-0.717,44.68,0,0,867.3585,0,100.3,2.18,194,0.764,1.282,0,0,52.21,59.91,33.84,35.66
"2017-03-19 00:10:00",279854,0.226,278.9,-0.835,47.91,0,0,867.3416,0,99.8,2.187,192,0.753,1.287,0,0,52.16,59.91,33.83,35.66
"2017-03-19 00:20:00",279855,0.549,298.3,-0.892,46.36,0,0,867.3879,0,99.9,2.183,187,0.746,1.287,0.0113767,0,52.16,59.91,33.83,35.66
"2017-03-19 00:30:00",279856,0.519,319.1,-0.52,44.7,0.03146679,0,867.4659,0,100.2,2.18,189,0.76,1.304,0.03413164,0.08,52.16,59.91,33.83,35.66
"2017-03-19 00:40:00",279857,0.489,297.1,-0.275,42.82,0.04720165,0,867.4954,0,100.1,2.18,195,0.782,1.316,0.01137787,0.048,52.16,59.91,33.83,35.66
"2017-03-19 00:50:00",279858,0.611,297.2,-0.25,43.74,0,0,867.4912,0,100,2.181,186,0.789,1.319,0,0,52.16,59.91,33.83,35.66
"2017-03-19 01:00:00",279859,0.845,319.7,-0.292,45.96,0,0,867.4639,0,100.1,2.18,186,0.797,1.312,0,0,52.16,59.91,33.83,35.66
"2017-03-19 01:10:00",279860,0.539,14.85,-0.499,49.7,0,0,867.4597,0,100,2.184,192,0.8,1.316,0,0,52.16,59.91,33.83,35.66
"2017-03-19 01:20:00",279861,0.481,337.1,-0.673,51.55,0,0,867.5692,0,100.2,2.181,192,0.799,1.301,0,0,52.16,59.91,33.83,35.66
"2017-03-19 01:30:00",279862,0.656,314.8,-0.6,51.13,0,0,867.5903,0,100.1,2.181,192,0.788,1.283,0,0,52.16,59.91,33.83,35.66
"2017-03-19 01:40:00",279863,0.975,278.2,-0.688,49.36,0,0,867.5903,0,100.1,2.182,186,0.775,1.27,0,0,52.16,59.91,33.83,35.66
"2017-03-19 01:50:00",279864,0.223,296.7,-0.966,53.76,0,0,867.5903,0,100,2.185,192,0.78,1.269,0,0,52.16,59.91,33.83,35.66
"2017-03-19 02:00:00",279865,0.418,197.9,-1.285,57.42,0,0,867.5903,0,100,2.185,182,0.776,1.279,0,0,52.16,59.91,33.83,35.66
"2017-03-19 02:10:00",279866,0.729,166.3,-1.459,59.51,0,0,867.5903,0,99.9,2.187,190,0.765,1.279,0,0,52.16,59.91,33.83,35.66
"2017-03-19 02:20:00",279867,0.914,169.4,-1.693,65.55,0,0,867.5903,0,100.1,2.186,193,0.765,1.277,0,0,52.21,59.91,33.84,35.66
"2017-03-19 02:30:00",279868,0.892,182,-1.754,69.8,0,0,867.5903,0,100,2.187,189,0.766,1.27,0,0,52.16,59.91,33.83,35.66
"2017-03-19 02:40:00",279869,0.577,196.2,-1.77,72.96,0,0,867.5566,0,99.9,2.189,190,0.771,1.281,0,0,52.16,59.91,33.83,35.66
"2017-03-19 02:50:00",279870,0.427,177,-1.862,77.58,0,0,867.5313,0,99.9,2.188,187,0.773,1.283,0,0,52.21,59.91,33.84,35.66
"2017-03-19 03:00:00",279871,0.236,91.5,-1.817,80.8,0,0,867.3837,0,100,2.187,190,0.777,1.299,0.1289435,0,52.16,59.91,33.83,35.66
"2017-03-19 03:10:00",279872,0.345,162.5,-1.712,82.3,0,0,867.3373,0,99.9,2.188,191,0.777,1.301,0.2275496,0,52.16,59.91,33.83,35.66
"2017-03-19 03:20:00",279873,0.891,184.8,-1.772,84,0,0,867.2636,0,99.7,2.19,189,0.764,1.297,0.2275533,0,52.21,59.91,33.84,35.66
"2017-03-19 03:30:00",279874,0.811,175.1,-1.829,86,0,0,867.2952,0,99.9,2.188,186,0.787,1.309,0.1479134,0,52.16,59.91,33.83,35.66
"2017-03-19 03:40:00",279875,0.758,183.6,-1.87,86.5,0,0,867.3163,0,99.9,2.189,177,0.785,1.315,0.1403307,0,52.16,59.91,33.83,35.66
"2017-03-19 03:50:00",279876,0.747,180.9,-1.899,88.2,0,0,867.3395,0,99.9,2.189,177,0.798,1.325,0.1441295,0,52.16,59.91,33.83,35.66
"2017-03-19 04:00:00",279877,0.694,177,-1.923,89.5,0,0,867.3956,0,99.8,2.19,190,0.787,1.315,0.06827048,0,52.16,59.91,33.83,35.66
"2017-03-19 04:10:00",279878,0.469,176.9,-1.924,90.6,0,0,867.5938,0,99.9,2.189,186,0.801,1.329,0.102406,0,52.16,59.91,33.83,35.66
"2017-03-19 04:20:00",279879,0.686,180,-1.79,89.2,0,0,867.518,0,99.4,2.193,192,0.795,1.338,0.2199923,0,52.16,59.91,33.83,35.66
"2017-03-19 04:30:00",279880,0.593,163.2,-1.846,88.7,0,0,867.5137,0,99.5,2.192,189,0.824,1.347,0.1024127,0,52.16,59.91,33.83,35.66
"2017-03-19 04:40:00",279881,0.583,162.7,-1.78,87.4,0,0,867.5568,0,99.7,2.19,185,0.805,1.341,0.1858558,0,52.16,59.91,33.83,35.66
"2017-03-19 04:50:00",279882,0.854,163.4,-1.76,86.4,0,0,867.4944,0,99.7,2.191,193,0.789,1.339,0.1858543,0,52.16,59.91,33.83,35.66
"2017-03-19 05:00:00",279883,1.524,181.6,-1.846,87.2,0,0,867.3503,0,99.5,2.192,180,0.793,1.34,0.1251682,0,52.21,59.91,33.84,35.66
"2017-03-19 05:10:00",279884,1.002,180.5,-1.872,87.6,0,0,867.5052,0,99.4,2.193,185,0.803,1.348,0.05689583,0,52.16,59.91,33.83,35.66
"2017-03-19 05:20:00",279885,1.157,192.1,-1.876,88.2,0,0,867.6058,0,99.4,2.193,188,0.795,1.345,0.01896558,0,52.21,59.91,33.84,35.66
"2017-03-19 05:30:00",279886,0.681,165.4,-1.744,87.7,0,0,867.6232,0,99.4,2.193,184,0.817,1.355,0.1858665,0,52.16,59.91,33.83,35.66
"2017-03-19 05:40:00",279887,0.782,195.3,-1.738,87.8,0,0,867.6581,0,99.3,2.194,184,0.807,1.357,0.1100025,0,52.16,59.91,33.83,35.66
"2017-03-19 05:50:00",279888,0.603,230.8,-1.826,88.1,0,0,867.8484,0,99.4,2.193,176,0.807,1.357,0.2200044,0,52.16,59.91,33.83,35.66
"2017-03-19 06:00:00",279889,0.652,162.9,-1.993,88,0.02360436,0,867.8923,0,99.3,2.194,185,0.805,1.356,1.361751,0.908,52.21,59.91,33.84,35.66
"2017-03-19 06:10:00",279890,0.334,197.5,-1.906,87.6,2.006383,0,868.1265,0,99.3,2.195,184,0.808,1.357,3.349394,1.943,52.16,59.91,33.83,35.66
"2017-03-19 06:20:00",279891,0.239,243.8,-1.937,88,6.058654,0,868.1378,0,99.2,2.194,188,0.824,1.365,5.443396,0.915,52.16,59.91,33.83,35.66
"2017-03-19 06:30:00",279892,0.45,249.7,-1.539,84.1,9.630962,0,868.1286,0,99.3,2.194,185,0.812,1.367,7.93186,0.823,52.16,59.91,33.83,35.66
"2017-03-19 06:40:00",279893,0.809,259.4,-1.487,84.8,12.69192,0,868.1309,0,99.1,2.195,188,0.826,1.37,9.381017,0.743,52.16,59.91,33.83,35.66
"2017-03-19 06:50:00",279894,1.108,308.2,-1.29,84.6,15.99664,0,868.1575,0,99.3,2.192,194,0.814,1.369,11.26628,0.704,52.16,59.91,33.83,35.66
"2017-03-19 07:00:00",279895,0.928,277.3,-1.196,85.4,19.34875,0,868.16,0,99.2,2.193,185,0.829,1.37,12.87476,0.666,52.16,59.91,33.83,35.66
"2017-03-19 07:10:00",279896,0.775,232.6,-1.286,87.6,30.35551,0,868.2093,0,99.2,2.193,179,0.827,1.356,19.75888,0.651,52.16,59.91,33.83,35.66
"2017-03-19 07:20:00",279897,0.757,180,-1.337,87.3,53.36232,0,868.1375,0,99,2.196,175,0.806,1.344,35.01534,0.657,52.16,59.91,33.83,35.66
"2017-03-19 07:30:00",279898,0.429,170.3,-1.305,86.7,76.91936,0,868.2959,0,99.3,2.192,183,0.831,1.331,49.6304,0.646,52.21,59.91,33.84,35.66
"2017-03-19 07:40:00",279899,0.356,186,-1.138,85.3,100.2638,0,868.2971,0,99.3,2.191,184,0.828,1.313,61.67873,0.617,52.16,59.91,33.83,35.66
"2017-03-19 07:50:00",279900,0.164,139.5,-0.834,82.7,128.5383,0,868.2471,0,99.3,2.19,188,0.815,1.276,78.9521,0.616,52.16,59.91,33.83,35.66
"2017-03-19 08:00:00",279901,0.151,182.9,-0.462,79.88,160.7254,0,868.3262,0,99.3,2.188,187,0.793,1.28,89.97598,0.566,52.16,59.91,33.83,35.66
"2017-03-19 08:10:00",279902,0.663,212.2,-0.403,79.24,166.4258,0,868.3492,0,99.4,2.188,174,0.772,1.303,93.46643,0.565,52.16,59.91,33.83,35.66
"2017-03-19 08:20:00",279903,0.38,269.3,-0.267,78.27,144.7208,0,868.4672,0,99.5,2.186,187,0.791,1.334,85.48413,0.59,52.21,59.91,33.84,35.66
"2017-03-19 08:30:00",279904,0.173,51.83,-0.041,77.28,165.5674,0,868.5642,0,99.7,2.183,191,0.771,1.373,97.08305,0.589,52.16,59.91,33.83,35.66
"2017-03-19 08:40:00",279905,0.116,47.63,0.209,75.95,176.4964,0,868.6022,0,99.5,2.184,187,0.767,1.371,103.2334,0.585,52.16,59.91,33.83,35.66
"2017-03-19 08:50:00",279906,0.443,29.91,0.101,76.9,164.8938,0,868.6042,0.5,99.7,2.182,191,0.767,1.356,97.16586,0.589,52.16,59.91,33.83,35.66
"2017-03-19 09:00:00",279907,0.149,132.8,0.366,75.57,181.605,0,868.6274,0,99.7,2.182,187,0.774,1.331,107.1885,0.591,52.21,59.91,33.84,35.66
"2017-03-19 09:10:00",279908,0.131,146.7,0.792,73.79,247.8044,0,868.6434,0,99.5,2.18,193,0.823,1.343,154.0779,0.619,52.21,59.91,33.84,35.66
"2017-03-19 09:20:00",279909,0.385,359.3,0.896,72.42,216.9761,0,868.596,0,99.6,2.181,189,0.777,1.37,131.0122,0.603,52.16,59.91,33.83,35.66
"2017-03-19 09:30:00",279910,0.509,322.5,0.729,71.72,223.1269,0,868.7024,0,99.6,2.181,187,0.728,1.392,139.1463,0.623,52.16,59.91,33.83,35.66
"2017-03-19 09:40:00",279911,0.466,336.6,1.013,70.16,302.7709,0,868.7675,0,99.6,2.178,192,0.718,1.386,167.2838,0.556,52.21,59.91,33.84,35.66
"2017-03-19 09:50:00",279912,0.666,299.3,1.317,67.6,280.5413,0,868.7596,0,99.8,2.176,188,0.762,1.356,176.5063,0.628,52.16,59.91,33.83,35.66
"2017-03-19 10:00:00",279913,0.747,332.3,1.505,65.91,383.1718,0,868.7587,0,100.2,2.171,217,0.75,1.295,181.0406,0.5,52.21,59.91,33.84,35.66
"2017-03-19 10:10:00",279914,0.691,309.6,1.914,63.01,425.1281,0,868.7606,0,100,2.171,189,0.725,1.285,197.2454,0.488,52.16,59.91,33.83,35.66
"2017-03-19 10:20:00",279915,0.655,261.7,2.554,59.41,453.9501,0,868.7354,0,99.5,2.175,187,0.768,1.284,216.2978,0.499,52.16,59.91,33.83,35.66
"2017-03-19 10:30:00",279916,0.45,287.1,2.007,60.34,271.1941,0,868.7237,0,99.6,2.176,186,0.764,1.282,171.7427,0.626,52.1,59.91,33.81,35.66
"2017-03-19 10:40:00",279917,0.615,331.9,2.447,56.67,336.7723,0,868.6797,0,99.8,2.171,181,0.744,1.263,258.1094,0.754,52.21,59.91,33.84,35.66
"2017-03-19 10:50:00",279918,0.636,348.4,2.196,58.16,334.564,0,868.6553,0,100.1,2.17,185,0.715,1.235,175.0029,0.551,52.21,59.91,33.84,35.66
"2017-03-19 11:00:00",279919,0.821,260.5,2.743,54.65,654.1058,0,868.5197,0,99.9,2.17,184,0.692,1.213,301.9842,0.471,52.21,59.91,33.84,35.66
"2017-03-19 11:10:00",279920,0.568,235.9,2.617,56.37,385.8468,0,868.5632,0,99.7,2.171,185,0.682,1.251,199.7087,0.546,52.16,59.91,33.83,35.66
"2017-03-19 11:20:00",279921,0.876,350.4,3.029,51.86,485.1659,0,868.5693,0,100,2.169,183,0.68,1.276,247.8871,0.532,52.16,59.91,33.83,35.66
"2017-03-19 11:30:00",279922,0.851,340.2,3.329,49.82,677.5536,0,868.4725,0,99.7,2.17,175,0.711,1.301,352.8897,0.527,52.21,59.91,33.84,35.66
"2017-03-19 11:40:00",279923,0.931,289.8,3.369,48.29,680.591,0,868.5104,0,99.7,2.169,192,0.719,1.3,365.0844,0.536,52.16,59.91,33.83,35.66
"2017-03-19 11:50:00",279924,0.779,301.5,3.809,46.81,818.7799,0,868.4148,0,99.5,2.169,194,0.677,1.246,455.5207,0.555,52.1,59.91,33.81,35.66
"2017-03-19 12:00:00",279925,1.227,282.5,3.86,42.54,885.1788,0,868.4396,0,99.2,2.174,203,0.649,1.179,491.9427,0.554,52.16,59.91,33.83,35.66
"2017-03-19 12:10:00",279926,1.428,356.7,3.762,45.57,663.5212,0,868.3555,0,98.6,2.179,191,0.638,1.169,368.1022,0.554,52.16,59.91,33.83,35.66
"2017-03-19 12:20:00",279927,0.717,341.5,3.61,47.81,350.7987,0,868.3287,0,98.6,2.182,190,0.633,1.155,190.4331,0.542,52.16,59.91,33.83,35.66
"2017-03-19 12:30:00",279928,0.832,23.26,3.206,46.02,429.8156,0,868.3257,0,99.3,2.173,212,0.632,1.152,243.7403,0.562,52.16,59.91,33.83,35.66
"2017-03-19 12:40:00",279929,0.72,228.9,3.792,47.04,512.3113,0,868.2813,0,99.2,2.172,206,0.632,1.158,281.0089,0.547,52.16,59.91,33.83,35.66
"2017-03-19 12:50:00",279930,0.858,356.1,4.144,45.54,567.7642,0,868.0981,0,99.2,2.17,179,0.626,1.153,318.3344,0.556,52.16,59.91,33.83,35.66
"2017-03-19 13:00:00",279931,0.75,71.09,4.09,44.31,594.4496,0,868.1191,0,99.2,2.171,215,0.63,1.154,324.2744,0.541,52.1,59.91,33.81,35.66
"2017-03-19 13:10:00",279932,1.097,41.5,4.125,43.17,611.403,0,868.0645,0,99,2.174,191,0.632,1.123,328.2823,0.535,52.16,59.91,33.83,35.66
"2017-03-19 13:20:00",279933,0.79,333.1,4.443,43.44,788.1506,0,867.8181,0,98.3,2.178,177,0.632,1.101,425.254,0.538,52.1,59.91,33.81,35.66
"2017-03-19 13:30:00",279934,0.606,278.4,4.547,42.59,610.0436,0,867.8202,0,98.6,2.177,186,0.632,1.091,314.6295,0.515,52.16,59.91,33.83,35.66
"2017-03-19 13:40:00",279935,0.649,266.6,4.067,43.51,513.4387,0,867.8602,0,98.6,2.177,171,0.632,1.085,264.4617,0.515,52.16,59.91,33.83,35.66
"2017-03-19 13:50:00",279936,0.384,340.8,3.776,45.1,264.9711,0,867.8791,0,98.9,2.177,184,0.631,1.11,138.2631,0.522,52.16,59.91,33.83,35.66
"2017-03-19 14:00:00",279937,0.624,291.6,3.212,48.36,219.2913,0,867.8939,0,98.7,2.181,179,0.627,1.144,117.9116,0.538,52.1,59.91,33.81,35.66
"2017-03-19 14:10:00",279938,0.585,223.7,3.102,52.16,323.2007,0,868.0286,0,98.6,2.183,180,0.593,1.148,174.9402,0.541,52.16,59.91,33.83,35.66
"2017-03-19 14:20:00",279939,1.419,298.6,2.74,50.72,325.579,0,868.0855,0,98.9,2.18,188,0.587,1.139,173.2059,0.536,52.16,59.91,33.83,35.66
"2017-03-19 14:30:00",279940,0.688,285.5,3.194,51.14,293.8258,0,868.1002,0,98.3,2.185,181,0.588,1.141,161.5271,0.547,52.16,59.91,33.83,35.66
"2017-03-19 14:40:00",279941,1.387,308.6,2.64,53.24,202.4938,0,868.2013,0,98.3,2.188,191,0.588,1.109,112.0261,0.553,52.1,59.91,33.81,35.66
"2017-03-19 14:50:00",279942,1.211,330.3,2.358,55.38,213.3298,0,868.1486,0,98.1,2.189,183,0.604,1.106,117.1743,0.549,52.16,59.91,33.83,35.66
"2017-03-19 15:00:00",279943,0.719,188.3,2.404,57.8,161.9772,0,868.0547,0,98,2.19,178,0.618,1.111,87.39629,0.54,52.16,59.91,33.83,35.66
"2017-03-19 15:10:00",279944,1.233,215,2.269,57.25,114.8661,0,868.1251,0,98,2.193,172,0.655,1.132,63.11464,0.55,52.1,59.91,33.81,35.66
"2017-03-19 15:20:00",279945,0.955,285.9,1.774,60.37,68.57851,0,868.1686,0,98,2.193,173,0.683,1.174,38.54224,0.562,52.16,59.91,33.83,35.66
"2017-03-19 15:30:00",279946,1.31,303.9,1.621,61.41,87.05196,0,868.4138,0,97.9,2.195,173,0.663,1.225,49.59533,0.572,52.1,59.91,33.81,35.66
"2017-03-19 15:40:00",279947,0.985,298.8,1.668,61.83,163.352,0,868.4172,0,97.9,2.193,177,0.625,1.233,90.30723,0.556,52.1,59.91,33.81,35.66
"2017-03-19 15:50:00",279948,0.809,286.2,1.975,60.43,140.4204,0,868.3691,0,98.1,2.191,181,0.602,1.236,76.81361,0.547,52.16,59.91,33.83,35.66
"2017-03-19 16:00:00",279949,1.282,339,2.013,58.23,145.2553,0,868.2133,0,98.1,2.191,180,0.612,1.242,80.01987,0.551,52.1,59.91,33.81,35.66
"2017-03-19 16:10:00",279950,1.369,327.3,2.056,56.71,170.1852,0,868.3207,0,98.3,2.189,189,0.62,1.255,91.96078,0.54,52.1,59.91,33.81,35.66
"2017-03-19 16:20:00",279951,0.831,0.104,1.918,60,89.15062,0,868.3333,0,98.2,2.191,171,0.615,1.266,49.27919,0.552,52.16,59.91,33.83,35.66
"2017-03-19 16:30:00",279952,0.873,4.265,1.646,61.57,62.30678,0,868.3797,0,98.1,2.193,172,0.593,1.271,33.78376,0.542,52.16,59.91,33.83,35.66
"2017-03-19 16:40:00",279953,0.538,268.6,1.456,63.96,61.33393,0,868.4176,0,98.2,2.192,172,0.598,1.287,33.26181,0.542,52.1,59.91,33.81,35.66
"2017-03-19 16:50:00",279954,0.688,192.2,1.306,66.33,77.64113,0,868.4176,0,98.2,2.194,181,0.611,1.301,41.32826,0.533,52.1,59.91,33.81,35.66
"2017-03-19 17:00:00",279955,1.044,243.5,0.988,67.98,52.93727,0,868.4155,0,98.1,2.195,180,0.631,1.321,28.22506,0.534,52.16,59.91,33.83,35.66
"2017-03-19 17:10:00",279956,0.798,163.1,0.85,71.42,40.18093,0,868.4183,0,98.1,2.196,184,0.652,1.337,21.17339,0.527,52.16,59.91,33.83,35.66
"2017-03-19 17:20:00",279957,0.617,165.7,0.599,73.91,20.04643,0,868.4424,0,98.1,2.197,185,0.691,1.337,10.73136,0.537,52.1,59.91,33.81,35.66
"2017-03-19 17:30:00",279958,0.828,174.5,0.464,74.15,15.44319,0,868.475,0,98.1,2.197,184,0.723,1.288,8.407947,0.545,52.16,59.91,33.83,35.66
"2017-03-19 17:40:00",279959,0.731,173.3,0.465,74.83,12.3767,0,868.5023,0,98.2,2.197,185,0.756,1.251,6.759028,0.547,52.16,59.91,33.83,35.66
"2017-03-19 17:50:00",279960,0.498,293.8,0.389,73.58,9.015209,0,868.5648,0,98.1,2.198,185,0.763,1.242,5.170694,0.577,52.16,59.91,33.83,35.66
"2017-03-19 18:00:00",279961,0.613,179.7,0.322,74.7,3.157096,0,868.6141,0,98.1,2.198,183,0.763,1.257,2.441298,0.807,52.16,59.97,33.83,35.67
"2017-03-19 18:10:00",279962,0.413,158.1,0.244,75.05,0.1887181,0,868.7602,0,98,2.199,188,0.764,1.273,0.6558147,0.519,52.16,59.91,33.83,35.66
"2017-03-19 18:20:00",279963,0.459,204,0.104,75.16,0,0,868.7625,0,98.1,2.199,188,0.739,1.281,0.003790837,0,52.16,59.91,33.83,35.66
"2017-03-19 18:30:00",279964,0.229,191.1,0.127,75.17,0,0,868.8847,0,98,2.199,187,0.708,1.282,0,0,52.1,59.91,33.81,35.66
"2017-03-19 18:40:00",279965,0.19,344.7,0.057,75.43,0,0,869.0154,0,98,2.2,187,0.685,1.282,0,0,52.16,59.91,33.83,35.66
"2017-03-19 18:50:00",279966,0.365,110.9,0.03,75.42,0,0,869.0469,0,98,2.2,187,0.679,1.283,0,0,52.1,59.91,33.81,35.66
"2017-03-19 19:00:00",279967,0.274,305.4,0.028,74.7,0,0,869.1481,0,98,2.2,187,0.688,1.292,0,0,52.1,59.91,33.81,35.66
"2017-03-19 19:10:00",279968,0.107,236.7,0.058,74.22,0,0,869.1797,0,97.8,2.201,187,0.707,1.312,0.07203659,0,52.1,59.91,33.81,35.66
"2017-03-19 19:20:00",279969,0.395,323.8,0.033,74.13,0,0,869.0829,0,98,2.199,187,0.73,1.334,0.06824973,0,52.16,59.91,33.83,35.66
"2017-03-19 19:30:00",279970,0.554,22.16,0.266,70.59,0,0,869.0994,0,97.8,2.202,187,0.743,1.354,0.2237188,0,52.1,59.91,33.81,35.66
"2017-03-19 19:40:00",279971,0.446,348.6,0.082,71.98,0,0,869.3192,0,97.9,2.201,187,0.755,1.365,0,0,52.16,59.91,33.83,35.66
"2017-03-19 19:50:00",279972,0.46,340.8,0.037,70.92,0,0,869.1097,0,97.8,2.203,187,0.762,1.369,0,0,52.1,59.91,33.81,35.66
"2017-03-19 20:00:00",279973,0.184,37.58,-0.15,72.81,0,0,869.102,0,98.1,2.199,187,0.762,1.369,0.02654487,0,52.16,59.91,33.83,35.66
"2017-03-19 20:10:00",279974,0.233,325.9,0.11,69.52,0.01966483,0,869.1703,0,97.9,2.201,186,0.776,1.355,0.2464884,0.145,52.16,59.91,33.83,35.66
"2017-03-19 20:20:00",279975,0.6,309,0.225,69.18,0,0,869.2505,0,97.9,2.2,191,0.776,1.351,0.1971908,0,52.16,59.91,33.83,35.66
"2017-03-19 20:30:00",279976,1.134,285,0.189,68.84,0,0,869.3375,0,97.9,2.201,187,0.781,1.348,0.01896065,0,52.1,59.91,33.81,35.66
"2017-03-19 20:40:00",279977,0.608,271,-0.12,74.38,0,0,869.3649,0,97.7,2.204,192,0.771,1.359,0,0,52.1,59.91,33.81,35.66
"2017-03-19 20:50:00",279978,0.815,291.4,-0.805,85.9,0,0,869.5187,0,97.5,2.209,188,0.751,1.357,0,0,52.16,59.91,33.83,35.66
"2017-03-19 21:00:00",279979,0.472,176.4,-1.156,97.2,0,0,869.4724,0,97.7,2.208,185,0.741,1.347,0,0,52.1,59.91,33.81,35.66
"2017-03-19 21:10:00",279980,0.277,227.6,-1.098,100,0,0,869.3649,0,98.2,2.202,188,0.745,1.317,0.09480325,0,52.16,59.91,33.83,35.66
"2017-03-19 21:20:00",279981,0.58,283.1,-1.078,100,0,0,869.4303,0,98.3,2.201,201,0.76,1.288,0.2275278,0,52.16,59.91,33.83,35.66
"2017-03-19 21:30:00",279982,0.844,268.7,-0.968,100,0,0,869.6136,0,98.7,2.197,181,0.75,1.293,0.2275278,0,52.16,59.91,33.83,35.66
"2017-03-19 21:40:00",279983,0.448,270.4,-0.958,100,0,0,869.8391,0,98.8,2.196,189,0.743,1.293,0.2275278,0,52.1,59.91,33.81,35.66
"2017-03-19 21:50:00",279984,0.339,236.2,-0.949,100,0,0,869.8033,0,98.8,2.196,189,0.754,1.291,0.05308982,0,52.16,59.91,33.83,35.66
"2017-03-19 22:00:00",279985,0.455,219.7,-1.095,99.9,0,0,869.7885,0,98.8,2.196,194,0.757,1.29,0.02275278,0,52.16,59.91,33.83,35.66
"2017-03-19 22:10:00",279986,0.871,278.8,-0.997,94,0,0,869.6536,0,98.8,2.196,188,0.762,1.279,0.07963474,0,52.1,59.91,33.81,35.66
"2017-03-19 22:20:00",279987,0.478,283.9,-1.128,93.6,0,0,869.6136,0,98.8,2.197,189,0.765,1.26,0,0,52.16,59.91,33.83,35.66
"2017-03-19 22:30:00",279988,0.359,243.5,-1.326,98.2,0,0,869.6136,0,98.7,2.199,188,0.766,1.262,0,0,52.1,59.91,33.81,35.66
"2017-03-19 22:40:00",279989,0.193,257.3,-1.514,100,0,0,869.6136,0,98.6,2.201,188,0.766,1.251,0,0,52.1,59.91,33.81,35.66
"2017-03-19 22:50:00",279990,0.131,235.4,-1.721,100,0,0,869.6136,0,98.7,2.2,189,0.766,1.246,0,0,52.16,59.91,33.83,35.66
"2017-03-19 23:00:00",279991,0.348,259.4,-1.735,98.8,0,0,869.6136,0,98.6,2.201,189,0.766,1.255,0.2578649,0,52.16,59.91,33.83,35.66
"2017-03-19 23:10:00",279992,0.189,280.8,-1.789,92.6,0,0,869.5335,0,98.6,2.202,188,0.768,1.265,0.1403088,0,52.16,59.91,33.83,35.66
"2017-03-19 23:20:00",279993,0.358,29.58,-1.83,92.1,0,0,869.3818,0,98.6,2.202,188,0.771,1.278,0.2768255,0,52.16,59.91,33.83,35.66
"2017-03-19 23:30:00",279994,0.289,297.4,-1.968,92.1,0,0,869.3586,0,98.6,2.202,188,0.784,1.284,0.1592695,0,52.16,59.91,33.83,35.66
"2017-03-19 23:40:00",279995,0.135,206.6,-2.098,90.7,0,0,869.3607,0,98.6,2.203,189,0.76,1.284,0.04929769,0,52.1,59.91,33.81,35.66
"2017-03-19 23:50:00",279996,0.286,255.8,-2.296,92.2,0,0,869.3902,0,98.8,2.2,189,0.744,1.284,0.2389042,0,52.16,59.91,33.83,35.66
